Terug naar catalogus

STARLINK-35006

ActiefCommunicatieSSO
NORAD 65284·PAYLOAD·🇺🇸 United States

Gelanceerd Aug 22, 2025 vanaf Vandenberg Space Force Base

Loading…

Volgende Passages (komende 24 uur)

TLE

VersSource: CelesTrak SupGP

Epoch: Sep 15, 2026, 04:09 UTC

1 65284C 25184M   26258.17340278 -.00056150  00000+0 -17428-2 0  2580
2 65284  97.2835 306.1762 0000915  98.1689 312.8776 15.33472650    13

Volg STARLINK-35006 in realtime met AllMySat

Download on the App Store